Location: ??????????
(48.5701°N, 37.7703°E)
Time: 19:36:59
(UTC+00:00)

BREEZE-M DEB (TANK) - Pass Details

Date: 14 July 2020
Orbit: 428 x 13238 km, 46.0° (Epoch: 10 August)

Event Time Altitude Azimuth Distance (km) Brightness Sun altitude
Rises 00:17:11 0° 273° (W) 4,126 6.9 -11.0°
Reaches altitude 10° 00:20:52 10° 270° (W) 2,339 5.6 -10.6°
Maximum altitude 00:25:08 52° 193° (SSW) 612 2.7 -10.2°
Drops below altitude 10° 00:27:54 10° 114° (ESE) 1,519 5.3 -9.9°
Sets 00:29:47 0° 109° (ESE) 2,457 6.4 -9.7°
